| time (UTC) | temp F | wind direction | speed MPH | gust MPH | rain 1hr in | rain 24hr in | rain mn in | humidity % | barometer mb |
| 20260831231515 | 88 | 170 | 2.0 | 4.0 | 0.00 | 0.00 | 0.00 | 63 | 1013.4 |
| 20260831231020 | 88 | 223 | 2.0 | 4.0 | 0.00 | 0.00 | 0.00 | 62 | 1013.5 |
| 20260831230514 | 89 | 231 | 3.0 | 5.0 | 0.00 | 0.00 | 0.00 | 60 | 1013.4 |
| 20260831230021 | 89 | 191 | 3.0 | 5.0 | 0.00 | 0.00 | 0.00 | 63 | 1013.5 |
| 20260831225553 | 88 | 193 | 2.0 | 6.0 | 0.00 | 0.00 | 0.00 | 62 | 1013.5 |
| 20260831225019 | 88 | 223 | 3.0 | 6.0 | 0.00 | 0.00 | 0.00 | 60 | 1013.5 |
| 20260831224515 | 89 | 193 | 4.0 | 6.0 | 0.00 | 0.00 | 0.00 | 61 | 1013.6 |
| 20260831224018 | 89 | 168 | 3.0 | 7.0 | 0.00 | 0.00 | 0.00 | 63 | 1013.6 |
| 20260831223533 | 88 | 223 | 3.0 | 7.0 | 0.00 | 0.00 | 0.00 | 63 | 1013.6 |
| 20260831223019 | 88 | 183 | 3.0 | 5.0 | 0.00 | 0.00 | 0.00 | 62 | 1013.5 |
| 20260831222537 | 88 | 314 | 2.0 | 7.0 | 0.00 | 0.00 | 0.00 | 62 | 1013.7 |
| 20260831222023 | 88 | 199 | 4.0 | 7.0 | 0.00 | 0.00 | 0.00 | 61 | 1013.5 |
| 20260831221536 | 89 | 190 | 3.0 | 6.0 | 0.00 | 0.00 | 0.00 | 59 | 1013.5 |
| 20260831221034 | 89 | 213 | 3.0 | 6.0 | 0.00 | 0.00 | 0.00 | 59 | 1013.7 |
| 20260831220518 | 89 | 218 | 3.0 | 6.0 | 0.00 | 0.00 | 0.00 | 59 | 1013.7 |
| 20260831220032 | 89 | 229 | 3.0 | 6.0 | 0.00 | 0.00 | 0.00 | 58 | 1013.7 |
| 20260831215538 | 89 | 124 | 3.0 | 5.0 | 0.00 | 0.00 | 0.00 | 59 | 1013.6 |
| 20260831215033 | 89 | 197 | 3.0 | 5.0 | 0.00 | 0.00 | 0.00 | 59 | 1013.8 |
| 20260831214522 | 89 | 89 | 2.0 | 5.0 | 0.00 | 0.00 | 0.00 | 59 | 1013.8 |
| 20260831214016 | 89 | 336 | 2.0 | 6.0 | 0.00 | 0.00 | 0.00 | 62 | 1013.8 |
| 20260831213522 | 89 | 1 | 3.0 | 6.0 | 0.00 | 0.00 | 0.00 | 61 | 1013.8 |
| 20260831213015 | 89 | 197 | 3.0 | 6.0 | 0.00 | 0.00 | 0.00 | 61 | 1013.9 |
| 20260831212522 | 89 | 135 | 4.0 | 6.0 | 0.00 | 0.00 | 0.00 | 59 | 1013.9 |
| 20260831212036 | 89 | 165 | 3.0 | 7.0 | 0.00 | 0.00 | 0.00 | 63 | 1013.9 |
| 20260831211525 | 89 | 218 | 4.0 | 7.0 | 0.00 | 0.00 | 0.00 | 62 | 1013.9 |
| 20260831211039 | 89 | 126 | 3.0 | 7.0 | 0.00 | 0.00 | 0.00 | 63 | 1013.8 |
| 20260831210551 | 89 | 193 | 3.0 | 7.0 | 0.00 | 0.00 | 0.00 | 62 | 1013.9 |
| 20260831210015 | 88 | 147 | 3.0 | 7.0 | 0.00 | 0.00 | 0.00 | 65 | 1014.0 |
| 20260831205532 | 88 | 269 | 2.0 | 7.0 | 0.00 | 0.00 | 0.00 | 65 | 1013.9 |
| 20260831205017 | 88 | 178 | 3.0 | 7.0 | 0.00 | 0.00 | 0.00 | 66 | 1014.0 |
| 20260831204534 | 88 | 178 | 2.0 | 7.0 | 0.00 | 0.00 | 0.00 | 67 | 1014.1 |
| 20260831204021 | 88 | 237 | 3.0 | 8.0 | 0.00 | 0.00 | 0.00 | 67 | 1014.2 |
| 20260831203516 | 89 | 211 | 4.0 | 9.0 | 0.00 | 0.00 | 0.00 | 66 | 1014.1 |
| 20260831203032 | 89 | 168 | 5.0 | 9.0 | 0.00 | 0.00 | 0.00 | 65 | 1014.2 |
| 20260831202520 | 89 | 223 | 1.0 | 5.0 | 0.00 | 0.00 | 0.00 | 65 | 1014.2 |
| 20260831202017 | 89 | 46 | 2.0 | 6.0 | 0.00 | 0.00 | 0.00 | 65 | 1014.4 |
| 20260831201555 | 89 | 214 | 2.0 | 6.0 | 0.00 | 0.00 | 0.00 | 66 | 1014.4 |
| 20260831201020 | 89 | 195 | 3.0 | 7.0 | 0.00 | 0.00 | 0.00 | 64 | 1014.3 |
| 20260831200537 | 89 | 190 | 3.0 | 7.0 | 0.00 | 0.00 | 0.00 | 65 | 1014.3 |
| 20260831200045 | 88 | 203 | 4.0 | 7.0 | 0.00 | 0.00 | 0.00 | 65 | 1014.3 |
| 20260831195516 | 89 | 314 | 3.0 | 7.0 | 0.00 | 0.00 | 0.00 | 64 | 1014.3 |
| 20260831195033 | 89 | 215 | 2.0 | 6.0 | 0.00 | 0.00 | 0.00 | 62 | 1014.3 |
| 20260831194538 | 89 | 219 | 3.0 | 6.0 | 0.00 | 0.00 | 0.00 | 62 | 1014.4 |
| 20260831194024 | 89 | 223 | 3.0 | 6.0 | 0.00 | 0.00 | 0.00 | 65 | 1014.3 |
| 20260831193538 | 88 | 161 | 3.0 | 5.0 | 0.00 | 0.00 | 0.00 | 66 | 1014.3 |
| 20260831193028 | 88 | 197 | 3.0 | 5.0 | 0.00 | 0.00 | 0.00 | 67 | 1014.4 |
| 20260831192514 | 88 | 237 | 2.0 | 5.0 | 0.00 | 0.00 | 0.00 | 66 | 1014.4 |
| 20260831192039 | 87 | 295 | 3.0 | 6.0 | 0.00 | 0.00 | 0.00 | 67 | 1014.4 |
| 20260831191525 | 87 | 269 | 3.0 | 6.0 | 0.00 | 0.00 | 0.00 | 68 | 1014.4 |
| 20260831191037 | 86 | 124 | 1.0 | 5.0 | 0.00 | 0.00 | 0.00 | 70 | 1014.4 |
| 20260831190520 | 86 | 1 | 1.0 | 7.0 | 0.00 | 0.00 | 0.00 | 70 | 1014.5 |
| 20260831190058 | 85 | 49 | 4.0 | 7.0 | 0.00 | 0.00 | 0.00 | 69 | 1014.5 |
| 20260831185523 | 85 | 343 | 2.0 | 6.0 | 0.00 | 0.00 | 0.00 | 70 | 1014.6 |
| 20260831185016 | 85 | 253 | 3.0 | 5.0 | 0.00 | 0.00 | 0.00 | 71 | 1014.7 |
| 20260831184529 | 84 | 46 | 2.0 | 6.0 | 0.00 | 0.00 | 0.00 | 70 | 1014.7 |
| 20260831184015 | 84 | 269 | 2.0 | 7.0 | 0.00 | 0.00 | 0.00 | 70 | 1014.6 |
| 20260831183532 | 84 | 325 | 4.0 | 7.0 | 0.00 | 0.00 | 0.00 | 70 | 1014.7 |
| 20260831183018 | 85 | 148 | 3.0 | 5.0 | 0.00 | 0.00 | 0.00 | 70 | 1014.6 |
| 20260831182535 | 85 | 283 | 3.0 | 5.0 | 0.00 | 0.00 | 0.00 | 69 | 1014.7 |
| 20260831182022 | 85 | 300 | 2.0 | 4.0 | 0.00 | 0.00 | 0.00 | 71 | 1014.6 |
| 20260831181516 | 84 | 46 | 2.0 | 7.0 | 0.00 | 0.00 | 0.00 | 70 | 1014.7 |
| 20260831181033 | 84 | 89 | 1.0 | 7.0 | 0.00 | 0.00 | 0.00 | 70 | 1014.6 |
| 20260831180516 | 84 | 321 | 2.0 | 7.0 | 0.00 | 0.00 | 0.00 | 70 | 1014.6 |
| 20260831180050 | 84 | 331 | 3.0 | 7.0 | 0.00 | 0.00 | 0.00 | 72 | 1014.6 |
| 20260831175520 | 84 | 46 | 1.0 | 5.0 | 0.00 | 0.00 | 0.00 | 71 | 1014.7 |
| 20260831175014 | 83 | 300 | 2.0 | 7.0 | 0.00 | 0.00 | 0.00 | 73 | 1014.6 |
| 20260831174529 | 83 | 59 | 4.0 | 7.0 | 0.00 | 0.00 | 0.00 | 71 | 1014.6 |
| 20260831174057 | 83 | 283 | 2.0 | 7.0 | 0.00 | 0.00 | 0.00 | 73 | 1014.6 |
| 20260831173520 | 82 | 1 | 3.0 | 5.0 | 0.00 | 0.00 | 0.00 | 75 | 1014.6 |
| 20260831173034 | 81 | 108 | 3.0 | 7.0 | 0.00 | 0.00 | 0.00 | 75 | 1014.5 |
| 20260831172517 | 81 | 329 | 2.0 | 9.0 | 0.00 | 0.00 | 0.00 | 75 | 1014.6 |
| 20260831172031 | 81 | 25 | 5.0 | 9.0 | 0.00 | 0.00 | 0.00 | 75 | 1014.4 |
| 20260831171514 | 80 | 328 | 3.0 | 7.0 | 0.00 | 0.00 | 0.00 | 76 | 1014.5 |
| 20260831171048 | 80 | 18 | 2.0 | 9.0 | 0.00 | 0.00 | 0.00 | 76 | 1014.6 |
| 20260831170537 | 80 | 308 | 3.0 | 9.0 | 0.00 | 0.00 | 0.00 | 76 | 1014.5 |
| 20260831170024 | 79 | 350 | 3.0 | 7.0 | 0.00 | 0.00 | 0.00 | 77 | 1014.3 |
| 20260831165536 | 79 | 305 | 2.0 | 8.0 | 0.00 | 0.00 | 0.00 | 77 | 1014.4 |
| 20260831165019 | 80 | 309 | 4.0 | 8.0 | 0.00 | 0.00 | 0.00 | 75 | 1014.3 |
| 20260831164533 | 80 | 314 | 3.0 | 7.0 | 0.00 | 0.00 | 0.00 | 76 | 1014.3 |
| 20260831164040 | 79 | 28 | 5.0 | 7.0 | 0.00 | 0.00 | 0.00 | 76 | 1014.3 |
| 20260831163525 | 79 | 231 | 2.0 | 6.0 | 0.00 | 0.00 | 0.00 | 76 | 1014.4 |
| 20260831163017 | 78 | 28 | 3.0 | 8.0 | 0.00 | 0.00 | 0.00 | 77 | 1014.4 |
| 20260831162542 | 78 | 257 | 3.0 | 10.0 | 0.00 | 0.00 | 0.00 | 77 | 1014.3 |
| 20260831162027 | 78 | 335 | 4.0 | 10.0 | 0.00 | 0.00 | 0.00 | 78 | 1014.0 |
| 20260831161530 | 78 | 304 | 4.0 | 10.0 | 0.00 | 0.00 | 0.00 | 77 | 1013.9 |
| 20260831161020 | 77 | 323 | 4.0 | 7.0 | 0.00 | 0.00 | 0.00 | 78 | 1014.0 |
| 20260831160540 | 77 | 325 | 4.0 | 7.0 | 0.00 | 0.00 | 0.00 | 77 | 1014.1 |
| 20260831160024 | 77 | 269 | 3.0 | 6.0 | 0.00 | 0.00 | 0.00 | 77 | 1014.3 |
| 20260831155534 | 77 | 284 | 3.0 | 6.0 | 0.00 | 0.00 | 0.00 | 78 | 1014.3 |
| 20260831155038 | 76 | 269 | 3.0 | 7.0 | 0.00 | 0.00 | 0.00 | 78 | 1014.2 |
| 20260831154544 | 76 | 296 | 3.0 | 7.0 | 0.00 | 0.00 | 0.00 | 80 | 1014.0 |
| 20260831154014 | 75 | 274 | 3.0 | 7.0 | 0.00 | 0.00 | 0.00 | 81 | 1014.2 |
| 20260831153537 | 75 | 296 | 3.0 | 7.0 | 0.00 | 0.00 | 0.00 | 82 | 1014.0 |
| 20260831153040 | 74 | 299 | 3.0 | 7.0 | 0.00 | 0.00 | 0.00 | 83 | 1013.9 |
| 20260831152533 | 74 | 269 | 2.0 | 7.0 | 0.00 | 0.00 | 0.00 | 83 | 1013.9 |
| 20260831152014 | 73 | 317 | 3.0 | 6.0 | 0.00 | 0.00 | 0.00 | 83 | 1014.0 |
| 20260831151522 | 73 | 298 | 3.0 | 10.0 | 0.00 | 0.00 | 0.00 | 84 | 1014.1 |
| 20260831151014 | 73 | 295 | 5.0 | 10.0 | 0.00 | 0.00 | 0.00 | 84 | 1014.1 |
| 20260831150547 | 73 | 306 | 3.0 | 7.0 | 0.00 | 0.00 | 0.00 | 85 | 1013.9 |
| 20260831150019 | 72 | 286 | 2.0 | 6.0 | 0.00 | 0.00 | 0.00 | 85 | 1014.0 |
| 20260831145523 | 72 | 324 | 3.0 | 7.0 | 0.00 | 0.00 | 0.00 | 85 | 1013.9 |
| 20260831145015 | 72 | 279 | 3.0 | 7.0 | 0.00 | 0.00 | 0.00 | 85 | 1013.6 |
| 20260831144531 | 72 | 327 | 3.0 | 11.0 | 0.00 | 0.00 | 0.00 | 85 | 1013.5 |
| 20260831144019 | 72 | 277 | 5.0 | 13.0 | 0.00 | 0.00 | 0.00 | 85 | 1013.6 |
| 20260831143534 | 72 | 302 | 6.0 | 13.0 | 0.00 | 0.00 | 0.00 | 86 | 1013.7 |
| 20260831143037 | 72 | 307 | 4.0 | 8.0 | 0.00 | 0.00 | 0.00 | 87 | 1013.8 |
| 20260831142522 | 71 | 318 | 4.0 | 9.0 | 0.00 | 0.00 | 0.00 | 88 | 1013.6 |
| 20260831142035 | 71 | 290 | 3.0 | 9.0 | 0.00 | 0.00 | 0.00 | 88 | 1013.6 |
| 20260831141522 | 71 | 269 | 4.0 | 9.0 | 0.00 | 0.00 | 0.00 | 89 | 1013.4 |
| 20260831141035 | 71 | 290 | 3.0 | 10.0 | 0.00 | 0.00 | 0.00 | 90 | 1013.3 |
| 20260831140516 | 70 | 293 | 3.0 | 10.0 | 0.00 | 0.00 | 0.00 | 90 | 1013.4 |
| 20260831140029 | 70 | 295 | 3.0 | 9.0 | 0.00 | 0.00 | 0.00 | 90 | 1013.3 |
| 20260831135557 | 70 | 247 | 3.0 | 9.0 | 0.00 | 0.00 | 0.00 | 90 | 1012.8 |
| 20260831135040 | 70 | 308 | 4.0 | 8.0 | 0.00 | 0.00 | 0.00 | 90 | 1012.8 |
| 20260831134555 | 69 | 229 | 3.0 | 8.0 | 0.00 | 0.00 | 0.00 | 90 | 1012.8 |
| 20260831134017 | 69 | 299 | 3.0 | 8.0 | 0.00 | 0.00 | 0.00 | 90 | 1012.8 |
| 20260831133533 | 69 | 25 | 4.0 | 8.0 | 0.00 | 0.00 | 0.00 | 90 | 1012.8 |
| 20260831133038 | 69 | 324 | 3.0 | 8.0 | 0.00 | 0.00 | 0.00 | 90 | 1013.1 |
| 20260831132524 | 69 | 314 | 3.0 | 8.0 | 0.00 | 0.00 | 0.00 | 90 | 1013.7 |
| 20260831132035 | 69 | 300 | 3.0 | 5.0 | 0.00 | 0.00 | 0.00 | 91 | 1013.8 |
| 20260831131542 | 69 | 314 | 2.0 | 5.0 | 0.00 | 0.00 | 0.00 | 91 | 1013.8 |
| 20260831131026 | 68 | 269 | 2.0 | 6.0 | 0.00 | 0.00 | 0.00 | 90 | 1013.6 |
| 20260831130537 | 68 | 274 | 3.0 | 6.0 | 0.00 | 0.00 | 0.00 | 90 | 1013.4 |
| 20260831130040 | 68 | 304 | 3.0 | 6.0 | 0.00 | 0.00 | 0.00 | 90 | 1013.9 |
| 20260831125527 | 68 | 286 | 3.0 | 6.0 | 0.00 | 0.00 | 0.00 | 90 | 1014.5 |
| 20260831125039 | 68 | 321 | 2.0 | 5.0 | 0.00 | 0.00 | 0.00 | 90 | 1014.9 |
| 20260831124525 | 68 | 89 | 2.0 | 9.0 | 0.00 | 0.00 | 0.00 | 91 | 1015.3 |
| 20260831124034 | 68 | 350 | 2.0 | 9.0 | 0.00 | 0.00 | 0.00 | 91 | 1015.5 |
| 20260831123520 | 68 | 216 | 2.0 | 6.0 | 0.00 | 0.00 | 0.00 | 91 | 1015.2 |
| 20260831123033 | 68 | 178 | 2.0 | 6.0 | 0.00 | 0.00 | 0.00 | 91 | 1015.0 |
| 20260831122519 | 68 | 68 | 2.0 | 6.0 | 0.00 | 0.00 | 0.00 | 91 | 1014.8 |
| 20260831122035 | 69 | 241 | 2.0 | 4.0 | 0.00 | 0.00 | 0.00 | 91 | 1014.7 |
| 20260831121520 | 69 | 197 | 1.0 | 4.0 | 0.00 | 0.00 | 0.00 | 90 | 1014.1 |
| 20260831121034 | 69 | 290 | 1.0 | 4.0 | 0.00 | 0.00 | 0.00 | 90 | 1013.9 |
| 20260831120518 | 69 | 331 | 1.0 | 5.0 | 0.00 | 0.00 | 0.00 | 90 | 1013.5 |
| 20260831120033 | 69 | 269 | 1.0 | 6.0 | 0.00 | 0.00 | 0.00 | 90 | 1013.3 |
| 20260831115518 | 69 | 245 | 2.0 | 6.0 | 0.00 | 0.00 | 0.00 | 90 | 1013.1 |
| 20260831115031 | 69 | 283 | 2.0 | 5.0 | 0.00 | 0.00 | 0.00 | 91 | 1012.9 |
| 20260831114517 | 69 | 296 | 2.0 | 5.0 | 0.00 | 0.00 | 0.00 | 91 | 1012.7 |
| 20260831114032 | 70 | 1 | 1.0 | 6.0 | 0.00 | 0.00 | 0.00 | 91 | 1012.6 |
| 20260831113535 | 70 | 314 | 2.0 | 8.0 | 0.00 | 0.00 | 0.00 | 91 | 1012.3 |
| 20260831113023 | 70 | 310 | 4.0 | 8.0 | 0.00 | 0.00 | 0.00 | 91 | 1012.2 |
| 20260831112515 | 70 | 307 | 3.0 | 8.0 | 0.00 | 0.00 | 0.00 | 91 | 1012.1 |
| 20260831112022 | 70 | 303 | 3.0 | 9.0 | 0.00 | 0.00 | 0.00 | 92 | 1012.0 |
| 20260831111515 | 71 | 296 | 4.0 | 9.0 | 0.00 | 0.00 | 0.00 | 92 | 1012.0 |
| 20260831111021 | 71 | 304 | 3.0 | 10.0 | 0.00 | 0.00 | 0.00 | 93 | 1012.0 |
| 20260831110536 | 72 | 299 | 5.0 | 10.0 | 0.00 | 0.00 | 0.00 | 94 | 1011.8 |
| 20260831110023 | 72 | 306 | 4.0 | 9.0 | 0.00 | 0.00 | 0.00 | 94 | 1011.7 |
| 20260831105515 | 72 | 269 | 1.0 | 4.0 | 0.00 | 0.01 | 0.00 | 95 | 1011.7 |
| 20260831105020 | 72 | 303 | 1.0 | 3.0 | 0.00 | 0.01 | 0.00 | 95 | 1011.7 |
| 20260831104529 | 73 | 135 | 1.0 | 3.0 | 0.00 | 0.01 | 0.00 | 95 | 1011.4 |
| 20260831104013 | 72 | 286 | 0.0 | 4.0 | 0.00 | 0.01 | 0.00 | 95 | 1011.1 |
| 20260831103519 | 72 | 308 | 1.0 | 6.0 | 0.00 | 0.01 | 0.00 | 96 | 1010.9 |
| 20260831103033 | 72 | 1 | 3.0 | 6.0 | 0.00 | 0.01 | 0.00 | 95 | 1010.7 |
| 20260831102537 | 72 | 327 | 1.0 | 4.0 | 0.00 | 0.01 | 0.00 | 95 | 1010.8 |
| 20260831102032 | 72 | 303 | 1.0 | 4.0 | 0.00 | 0.01 | 0.00 | 96 | 1010.7 |
| 20260831101517 | 72 | 314 | 2.0 | 4.0 | 0.00 | 0.01 | 0.00 | 96 | 1010.7 |
| 20260831101031 | 72 | 28 | 0.0 | 2.0 | 0.00 | 0.01 | 0.00 | 96 | 1010.7 |
| 20260831100517 | 71 | 340 | 1.0 | 2.0 | 0.00 | 0.01 | 0.00 | 96 | 1010.5 |
| 20260831100033 | 71 | 46 | 1.0 | 2.0 | 0.00 | 0.01 | 0.00 | 96 | 1010.6 |
| 20260831095521 | 71 | 303 | 1.0 | 2.0 | 0.00 | 0.01 | 0.00 | 96 | 1010.6 |
| 20260831095035 | 71 | 1 | 1.0 | 2.0 | 0.00 | 0.01 | 0.00 | 96 | 1010.5 |
| 20260831094531 | 71 | 206 | 1.0 | 2.0 | 0.00 | 0.01 | 0.00 | 96 | 1010.5 |
| 20260831094058 | 71 | 303 | 1.0 | 3.0 | 0.00 | 0.01 | 0.00 | 96 | 1010.5 |
| 20260831093525 | 71 | 269 | 1.0 | 3.0 | 0.00 | 0.01 | 0.00 | 96 | 1010.5 |
| 20260831093016 | 71 | 303 | 1.0 | 2.0 | 0.00 | 0.01 | 0.00 | 96 | 1010.5 |
| 20260831092517 | 71 | 314 | 1.0 | 2.0 | 0.00 | 0.01 | 0.00 | 96 | 1010.5 |
| 20260831092033 | 71 | 63 | 1.0 | 2.0 | 0.00 | 0.01 | 0.00 | 96 | 1010.5 |
| 20260831091537 | 71 | 331 | 0.0 | 2.0 | 0.00 | 0.01 | 0.00 | 96 | 1010.4 |
| 20260831091024 | 71 | 250 | 0.0 | 2.0 | 0.00 | 0.01 | 0.00 | 96 | 1010.3 |
| 20260831090559 | 71 | 241 | 0.0 | 2.0 | 0.00 | 0.01 | 0.00 | 96 | 1010.3 |
| 20260831090025 | 71 | 314 | 0.0 | 2.0 | 0.00 | 0.01 | 0.00 | 96 | 1010.3 |
| 20260831085536 | 71 | 269 | 0.0 | 1.0 | 0.00 | 0.01 | 0.00 | 96 | 1010.2 |
| 20260831085054 | 71 | 269 | 0.0 | 1.0 | 0.00 | 0.01 | 0.00 | 96 | 1010.2 |
| 20260831084539 | 71 | 314 | 0.0 | 1.0 | 0.00 | 0.01 | 0.00 | 95 | 1010.1 |
| 20260831084045 | 71 | 296 | 0.0 | 2.0 | 0.00 | 0.01 | 0.00 | 95 | 1010.1 |
| 20260831083538 | 71 | 314 | 0.0 | 2.0 | 0.00 | 0.01 | 0.00 | 96 | 1010.1 |
| 20260831083026 | 71 | 269 | 0.0 | 1.0 | 0.00 | 0.01 | 0.00 | 96 | 1010.1 |
| 20260831082530 | 71 | 1 | 0.0 | 2.0 | 0.00 | 0.01 | 0.00 | 96 | 1010.1 |
| 20260831082016 | 70 | 89 | 0.0 | 2.0 | 0.00 | 0.01 | 0.00 | 96 | 1010.2 |
| 20260831081532 | 70 | 1 | 1.0 | 5.0 | 0.00 | 0.01 | 0.00 | 96 | 1010.1 |
| 20260831081018 | 70 | 290 | 2.0 | 5.0 | 0.00 | 0.01 | 0.00 | 96 | 1010.1 |
| 20260831080534 | 70 | 290 | 3.0 | 5.0 | 0.00 | 0.01 | 0.00 | 95 | 1010.0 |
| 20260831080040 | 70 | 306 | 3.0 | 4.0 | 0.00 | 0.01 | 0.00 | 96 | 1010.0 |
| 20260831075533 | 70 | 269 | 1.0 | 1.0 | 0.00 | 0.01 | 0.00 | 96 | 1009.9 |
| 20260831075024 | 70 | 303 | 0.0 | 2.0 | 0.00 | 0.01 | 0.00 | 95 | 1009.9 |
| 20260831074539 | 70 | 269 | 1.0 | 2.0 | 0.00 | 0.01 | 0.00 | 95 | 1009.9 |
| 20260831074028 | 70 | 331 | 1.0 | 2.0 | 0.00 | 0.01 | 0.00 | 95 | 1009.9 |
| 20260831073514 | 70 | 46 | 0.0 | 1.0 | 0.00 | 0.01 | 0.00 | 95 | 1010.0 |
| 20260831073031 | 70 | 46 | 0.0 | 2.0 | 0.00 | 0.01 | 0.00 | 95 | 1010.1 |
| 20260831072538 | 70 | 269 | 1.0 | 2.0 | 0.00 | 0.01 | 0.00 | 95 | 1010.1 |
| 20260831072048 | 70 | 303 | 0.0 | 2.0 | 0.00 | 0.01 | 0.00 | 96 | 1010.1 |
| 20260831071533 | 70 | 135 | 0.0 | 2.0 | 0.00 | 0.01 | 0.00 | 96 | 1010.2 |
| 20260831071100 | 70 | 314 | 0.0 | 2.0 | 0.00 | 0.01 | 0.00 | 96 | 1010.2 |
| 20260831070526 | 70 | 135 | 1.0 | 2.0 | 0.00 | 0.01 | 0.00 | 95 | 1010.1 |
| 20260831070033 | 70 | 127 | 1.0 | 2.0 | 0.00 | 0.01 | 0.00 | 94 | 1010.1 |
| 20260831065517 | 70 | 269 | 0.0 | 2.0 | 0.00 | 0.01 | 0.00 | 95 | 1010.1 |
| 20260831065034 | 71 | 178 | 0.0 | 2.0 | 0.00 | 0.01 | 0.00 | 95 | 1009.9 |
| 20260831064522 | 71 | 331 | 0.0 | 2.0 | 0.00 | 0.01 | 0.00 | 95 | 1010.1 |
| 20260831064016 | 71 | 56 | 1.0 | 2.0 | 0.00 | 0.01 | 0.00 | 95 | 1010.1 |
| 20260831063532 | 71 | 108 | 1.0 | 2.0 | 0.00 | 0.01 | 0.00 | 95 | 1010.0 |
| 20260831063018 | 71 | 117 | 1.0 | 2.0 | 0.00 | 0.01 | 0.00 | 95 | 1010.0 |
| 20260831062533 | 70 | 1 | 0.0 | 3.0 | 0.00 | 0.01 | 0.00 | 95 | 1010.0 |
| 20260831062019 | 70 | 108 | 1.0 | 3.0 | 0.00 | 0.01 | 0.00 | 95 | 1010.0 |
| 20260831061554 | 71 | 102 | 1.0 | 3.0 | 0.00 | 0.01 | 0.00 | 95 | 1009.9 |
| 20260831061018 | 71 | 117 | 1.0 | 2.0 | 0.00 | 0.01 | 0.00 | 95 | 1010.0 |
| 20260831060535 | 71 | 1 | 1.0 | 3.0 | 0.00 | 0.01 | 0.00 | 95 | 1009.8 |
| 20260831060020 | 71 | 178 | 2.0 | 3.0 | 0.00 | 0.01 | 0.00 | 94 | 1009.7 |
| 20260831055534 | 71 | 46 | 0.0 | 1.0 | 0.00 | 0.01 | 0.00 | 95 | 1009.6 |
| 20260831055017 | 71 | 46 | 0.0 | 1.0 | 0.00 | 0.01 | 0.00 | 95 | 1009.6 |
| 20260831054533 | 71 | 314 | 0.0 | 1.0 | 0.00 | 0.01 | 0.00 | 95 | 1009.7 |
| 20260831054016 | 71 | 117 | 0.0 | 2.0 | 0.00 | 0.01 | 0.00 | 94 | 1009.6 |
| 20260831053542 | 71 | 314 | 1.0 | 2.0 | 0.00 | 0.01 | 0.00 | 95 | 1009.5 |
| 20260831053029 | 71 | 46 | 0.0 | 2.0 | 0.00 | 0.01 | 0.00 | 94 | 1009.4 |
| 20260831052558 | 71 | 152 | 1.0 | 2.0 | 0.00 | 0.01 | 0.00 | 94 | 1009.4 |
| 20260831052019 | 71 | 178 | 1.0 | 2.0 | 0.00 | 0.01 | 0.00 | 93 | 1009.3 |
| 20260831051533 | 71 | 28 | 0.0 | 2.0 | 0.00 | 0.01 | 0.00 | 94 | 1009.1 |
| 20260831051020 | 72 | 152 | 0.0 | 2.0 | 0.00 | 0.01 | 0.00 | 94 | 1009.1 |
| 20260831050514 | 72 | 135 | 0.0 | 2.0 | 0.00 | 0.01 | 0.00 | 94 | 1009.2 |
| 20260831050027 | 72 | 108 | 1.0 | 2.0 | 0.00 | 0.01 | 0.00 | 94 | 1009.1 |
| 20260831045534 | 72 | 89 | 0.0 | 2.0 | 0.00 | 0.01 | 0.01 | 94 | 1009.3 |
| 20260831045021 | 72 | 178 | 1.0 | 2.0 | 0.00 | 0.01 | 0.01 | 93 | 1009.4 |
| 20260831044535 | 72 | 165 | 1.0 | 2.0 | 0.00 | 0.01 | 0.01 | 93 | 1009.4 |
| 20260831044020 | 72 | 1 | 0.0 | 2.0 | 0.00 | 0.01 | 0.01 | 93 | 1009.2 |
| 20260831043513 | 72 | 105 | 1.0 | 2.0 | 0.00 | 0.01 | 0.01 | 93 | 1009.5 |
| 20260831043029 | 72 | 46 | 0.0 | 1.0 | 0.00 | 0.01 | 0.01 | 93 | 1009.6 |
| 20260831042601 | 73 | 269 | 0.0 | 2.0 | 0.00 | 0.01 | 0.01 | 92 | 1009.5 |
| 20260831042029 | 73 | 161 | 1.0 | 2.0 | 0.00 | 0.01 | 0.01 | 93 | 1009.4 |
| 20260831041604 | 73 | 241 | 1.0 | 2.0 | 0.00 | 0.01 | 0.01 | 92 | 1009.4 |
| 20260831041522 | 73 | 241 | 1.0 | 2.0 | 0.00 | 0.01 | 0.01 | 92 | 1009.4 |
| 20260831041015 | 74 | 178 | 1.0 | 2.0 | 0.00 | 0.01 | 0.01 | 93 | 1009.3 |
| 20260831040518 | 74 | 152 | 0.0 | 3.0 | 0.00 | 0.01 | 0.01 | 93 | 1009.4 |
| 20260831040034 | 74 | 336 | 2.0 | 3.0 | 0.00 | 0.01 | 0.01 | 93 | 1009.6 |
| 20260831035520 | 74 | 1 | 0.0 | 2.0 | 0.00 | 0.01 | 0.01 | 93 | 1009.5 |
| 20260831035016 | 74 | 46 | 0.0 | 2.0 | 0.00 | 0.01 | 0.01 | 92 | 1009.5 |
| 20260831034531 | 74 | 1 | 1.0 | 2.0 | 0.00 | 0.01 | 0.01 | 92 | 1009.6 |
| 20260831034017 | 74 | 1 | 0.0 | 1.0 | 0.00 | 0.01 | 0.01 | 92 | 1009.6 |
| 20260831033553 | 74 | 213 | 0.0 | 1.0 | 0.00 | 0.01 | 0.01 | 92 | 1009.6 |
| 20260831033017 | 74 | 213 | 0.0 | 2.0 | 0.00 | 0.01 | 0.01 | 92 | 1009.7 |
| 20260831032533 | 74 | 269 | 1.0 | 2.0 | 0.00 | 0.01 | 0.01 | 91 | 1009.7 |
| 20260831032019 | 75 | 1 | 1.0 | 2.0 | 0.00 | 0.01 | 0.01 | 91 | 1009.7 |
| 20260831031535 | 75 | 89 | 0.0 | 1.0 | 0.00 | 0.01 | 0.01 | 91 | 1009.7 |
| 20260831031020 | 75 | 269 | 0.0 | 2.0 | 0.00 | 0.01 | 0.01 | 91 | 1009.8 |
| 20260831030537 | 75 | 269 | 0.0 | 2.0 | 0.00 | 0.01 | 0.01 | 91 | 1009.9 |
| 20260831030025 | 75 | 331 | 1.0 | 2.0 | 0.00 | 0.01 | 0.01 | 91 | 1009.9 |
| 20260831025515 | 75 | 135 | 1.0 | 2.0 | 0.00 | 0.01 | 0.01 | 90 | 1009.8 |
| 20260831025022 | 75 | 63 | 1.0 | 2.0 | 0.00 | 0.01 | 0.01 | 90 | 1009.9 |
| 20260831024537 | 75 | 124 | 1.0 | 2.0 | 0.00 | 0.01 | 0.01 | 90 | 1009.9 |
| 20260831024021 | 76 | 89 | 1.0 | 2.0 | 0.00 | 0.01 | 0.01 | 89 | 1009.9 |
| 20260831023517 | 76 | 46 | 1.0 | 2.0 | 0.00 | 0.01 | 0.01 | 89 | 1009.8 |
| 20260831023019 | 76 | 178 | 0.0 | 3.0 | 0.00 | 0.01 | 0.01 | 89 | 1009.7 |
| 20260831022556 | 76 | 269 | 1.0 | 3.0 | 0.00 | 0.01 | 0.01 | 87 | 1009.7 |
| 20260831022021 | 77 | 124 | 2.0 | 3.0 | 0.00 | 0.01 | 0.01 | 87 | 1009.6 |
| 20260831021514 | 77 | 135 | 0.0 | 1.0 | 0.00 | 0.01 | 0.01 | 87 | 1009.6 |
| 20260831021031 | 78 | 241 | 0.0 | 2.0 | 0.00 | 0.01 | 0.01 | 87 | 1009.7 |
| 20260831020519 | 78 | 46 | 1.0 | 2.0 | 0.00 | 0.01 | 0.01 | 86 | 1009.4 |
| 20260831020034 | 78 | 178 | 1.0 | 2.0 | 0.00 | 0.01 | 0.01 | 86 | 1009.4 |
| 20260831015520 | 79 | 197 | 1.0 | 2.0 | 0.00 | 0.01 | 0.01 | 85 | 1009.4 |
| 20260831015016 | 79 | 223 | 0.0 | 1.0 | 0.00 | 0.01 | 0.01 | 85 | 1009.2 |
| 20260831014532 | 79 | 152 | 0.0 | 2.0 | 0.00 | 0.01 | 0.01 | 84 | 1009.1 |
| 20260831014038 | 80 | 46 | 1.0 | 2.0 | 0.00 | 0.01 | 0.01 | 83 | 1009.2 |
| 20260831013527 | 80 | 178 | 0.0 | 1.0 | 0.00 | 0.01 | 0.01 | 83 | 1009.2 |
| 20260831013015 | 80 | 269 | 0.0 | 1.0 | 0.00 | 0.01 | 0.01 | 82 | 1009.1 |
| 20260831012532 | 81 | 46 | 0.0 | 1.0 | 0.00 | 0.01 | 0.01 | 82 | 1009.0 |
| 20260831012017 | 81 | 46 | 0.0 | 2.0 | 0.00 | 0.01 | 0.01 | 82 | 1008.9 |
| 20260831011554 | 81 | 1 | 1.0 | 2.0 | 0.00 | 0.01 | 0.01 | 81 | 1009.0 |
| 20260831011038 | 82 | 286 | 1.0 | 2.0 | 0.00 | 0.01 | 0.01 | 81 | 1009.0 |
| 20260831010525 | 82 | 1 | 1.0 | 2.0 | 0.00 | 0.01 | 0.01 | 81 | 1009.1 |
| 20260831010020 | 83 | 314 | 0.0 | 1.0 | 0.00 | 0.01 | 0.01 | 80 | 1009.0 |
| 20260831005515 | 83 | 178 | 0.0 | 2.0 | 0.00 | 0.01 | 0.01 | 80 | 1009.1 |
| 20260831005019 | 83 | 1 | 0.0 | 2.0 | 0.00 | 0.01 | 0.01 | 80 | 1009.2 |
| 20260831004534 | 84 | 331 | 1.0 | 1.0 | 0.00 | 0.01 | 0.01 | 80 | 1009.1 |
| 20260831004029 | 84 | 295 | 0.0 | 1.0 | 0.00 | 0.01 | 0.01 | 80 | 1009.0 |
| 20260831003516 | 84 | 178 | 0.0 | 2.0 | 0.00 | 0.01 | 0.01 | 79 | 1008.9 |
| 20260831003033 | 84 | 269 | 0.0 | 3.0 | 0.00 | 0.01 | 0.01 | 79 | 1009.0 |
| 20260831002540 | 84 | 206 | 1.0 | 3.0 | 0.00 | 0.01 | 0.01 | 78 | 1008.9 |
| 20260831002055 | 85 | 178 | 2.0 | 4.0 | 0.00 | 0.01 | 0.01 | 78 | 1008.8 |
| 20260831001523 | 85 | 168 | 2.0 | 4.0 | 0.00 | 0.01 | 0.01 | 77 | 1008.9 |
| 20260831001036 | 85 | 195 | 2.0 | 5.0 | 0.00 | 0.01 | 0.01 | 76 | 1008.9 |
| 20260831000532 | 85 | 209 | 2.0 | 5.0 | 0.00 | 0.01 | 0.01 | 76 | 1008.9 |
| 20260831000038 | 85 | 199 | 2.0 | 5.0 | 0.00 | 0.01 | 0.01 | 76 | 1009.0 |
| 20260830235527 | 86 | 201 | 3.0 | 5.0 | 0.00 | 0.01 | 0.01 | 75 | 1009.0 |
| 20260830235014 | 86 | 231 | 3.0 | 7.0 | 0.00 | 0.01 | 0.01 | 75 | 1009.1 |
| 20260830234531 | 86 | 226 | 2.0 | 7.0 | 0.00 | 0.01 | 0.01 | 76 | 1009.1 |
| 20260830234038 | 86 | 206 | 3.0 | 7.0 | 0.00 | 0.01 | 0.01 | 76 | 1009.1 |
| 20260830233526 | 86 | 194 | 4.0 | 7.0 | 0.00 | 0.01 | 0.01 | 75 | 1009.0 |
| 20260830233020 | 86 | 209 | 2.0 | 6.0 | 0.00 | 0.01 | 0.01 | 75 | 1009.0 |
| 20260830232516 | 86 | 218 | 3.0 | 6.0 | 0.00 | 0.01 | 0.01 | 75 | 1009.0 |
| 20260830232015 | 86 | 233 | 3.0 | 11.0 | 0.00 | 0.01 | 0.01 | 75 | 1009.1 |